Home   Weather   Italy   Naples   Past weeks
Flag for Italy

Past Weather in Naples, Italy — Yesterday and Last 2 Weeks

Currently: 54 °F. Passing clouds. (Weather station: Naples / Capodichino, Italy). See more current weather

Past Weather in Naples — Graph

°F

Naples Temperature Yesterday

Maximum temperature yesterday: 64 °F (at 1:50 pm)
Minimum temperature yesterday: 46 °F (at 4:50 am)
Average temperature yesterday: 57 °F

High & Low Weather Summary for the Past Weeks

 TemperatureHumidityPressure
High79 °F (Apr 12, 4:50 pm)100% (Apr 9, 1:20 am)30.30 "Hg (Apr 9, 1:20 am)
Low45 °F (Apr 20, 4:20 am)34% (Apr 9, 3:20 pm)29.56 "Hg (Apr 17, 4:20 am)
Average61 °F66%29.97 "Hg
* Reported Apr 8 7:20 pm — Apr 23 7:50 pm, Naples. Weather by CustomWeather, © 2024

Note: Actual official high and low records may vary slightly from our data, if they occured in-between our weather recording intervals... More about our weather records

Naples Weather History for the Previous 24 Hours

Scroll right to see more
 ConditionsComfort  
Time TempWeatherWind HumidityBarometerVisibility
7:50 pm
Tue, Apr 23
55 °FScattered clouds.9 mph67%29.80 "HgN/A
7:20 pm55 °FScattered clouds.14 mph59%29.77 "HgN/A
6:50 pm57 °FScattered clouds.15 mph51%29.77 "HgN/A
6:20 pm57 °FScattered clouds.16 mph51%29.77 "HgN/A
5:50 pm59 °FScattered clouds.16 mph48%29.77 "HgN/A
5:20 pm59 °FScattered clouds.18 mph51%29.77 "HgN/A
4:50 pm61 °FScattered clouds.17 mph48%29.77 "HgN/A
4:20 pm61 °FScattered clouds.15 mph45%29.77 "HgN/A
3:50 pm59 °FScattered clouds.17 mph45%29.77 "HgN/A
2:50 pm61 °FScattered clouds.20 mph48%29.77 "HgN/A
2:20 pm63 °FScattered clouds.18 mph42%29.77 "HgN/A
1:50 pm63 °FPassing clouds.18 mph45%29.77 "HgN/A
1:20 pm63 °FPassing clouds.18 mph39%29.77 "HgN/A
12:50 pm63 °FScattered clouds.14 mph49%29.77 "HgN/A
12:20 pm61 °FScattered clouds.16 mph55%29.77 "HgN/A
11:50 am61 °FPartly sunny.12 mph63%29.77 "HgN/A
11:20 am59 °FScattered clouds.12 mph72%29.74 "HgN/A
10:50 am59 °FScattered clouds.8 mph77%29.74 "HgN/A
10:20 am55 °FLight rain. Broken clouds.8 mph82%29.77 "HgN/A
9:50 am59 °FLight rain. Broken clouds.3 mph68%29.74 "HgN/A
9:20 am61 °FScattered clouds.2 mph63%29.77 "HgN/A
8:50 am57 °FBroken clouds.2 mph77%29.77 "HgN/A
8:20 am57 °FPartly sunny.3 mph77%29.77 "HgN/A
7:50 am55 °FScattered clouds.2 mph77%29.77 "HgN/A
7:20 am52 °FPassing clouds.3 mph82%29.77 "HgN/A
6:50 am50 °FPassing clouds.2 mph88%29.77 "HgN/A
6:20 am48 °FSunny.2 mph87%29.77 "Hg10 mi
5:50 am48 °FClear.1 mph94%29.77 "Hg10 mi
5:20 am50 °FClear.1 mph88%29.77 "Hg10 mi
4:50 am50 °FClear.2 mph88%29.80 "Hg10 mi
4:20 am52 °FClear.2 mph88%29.80 "Hg10 mi
3:50 am52 °FClear.2 mph88%29.80 "Hg10 mi
3:20 am52 °FClear.1 mph82%29.80 "Hg10 mi
2:20 am54 °FClear.1 mph82%29.83 "Hg10 mi
1:50 am54 °FClear.1 mph82%29.83 "Hg10 mi
1:20 am55 °FPassing clouds.2 mph77%29.83 "HgN/A
12:50 am55 °FPassing clouds.2 mph82%29.83 "HgN/A
12:20 am55 °FPassing clouds.2 mph82%29.83 "HgN/A
11:50 pm
Mon, Apr 22
57 °FPassing clouds.2 mph77%29.83 "HgN/A
11:20 pm57 °FPassing clouds.2 mph77%29.83 "HgN/A
10:20 pm55 °FPassing clouds.3 mph82%29.83 "HgN/A
9:50 pm57 °FClear.2 mph77%29.83 "Hg10 mi
9:20 pm57 °FClear.3 mph77%29.83 "Hg10 mi
Weather by CustomWeather, © 2024

See weather overview